Wind_Speed
13 10 8 7 8 7 2 3 2 6 5 3 1 2 3 2 3 4 4 3 3 3 2 2 2 2 2 3 3 2 1 1 3 1 1 2 1 0 1 1 3 1 3 3
14 12 9 7 7 6 3 3 2 6 6 2 2 2 2 3 3 4 3 4 4 1 2 3 2 2 1 4 2 2 1 0 4 2 2 1 2 1 2 4 0 0 2 3
15 14 11 7 7 7 5 3 2 2 6 4 3 2 3 3 3 3 4 3 3 2 2 1 2 2 1 1 2 4 2 1 5 7 2 2 3 4 3 1 2 2 2 3
15 15 12 9 7 6 6 4 2 3 2 5 4 2 1 3 3 4 3 3 4 2 2 2 2 2 2 1 4 3 2 0 1 1 2 0 1 4 8 7 3 5 2 2
17 15 12 10 7 5 8 3 3 2 1 1 5 4 4 6 3 3 3 4 1 2 3 2 1 3 2 1 1 1 1 1 1 2 1 2 3 5 6 9 3 6 4 8
19 16 12 11 8 6 6 5 4 2 2 3 3 3 3 5 4 3 2 2 1 3 1 2 3 1 2 2 1 2 1 2 1 1 1 2 6 12 12 6 7 8 8 5
20 17 13 12 10 8 8 6 4 3 2 4 4 2 4 4 4 1 2 2 2 1 8 5 5 5 5 5 6 3 3 3 0 0 2 4 1 2 3 11 5 14 6 1
21 19 16 13 12 10 9 7 6 4 3 4 3 5 3 3 1 1 2 2 3 10 0 2 2 2 2 1 3 2 1 2 2 2 3 5 2 4 4 5 1 8 15 13
24 20 17 16 13 11 9 9 8 5 2 4 2 4 6 3 3 2 1 2 6 5 0 1 2 2 0 2 2 1 2 1 2 2 3 3 2 1 2 1 3 4 4 7
24 23 19 16 15 13 10 9 9 6 3 4 7 3 4 5 2 1 2 4 4 3 2 3 3 2 0 2 2 4 3 2 5 3 3 6 3 4 4 4 3 2 3 5
25 26 21 17 16 14 11 9 10 9 5 6 9 7 4 4 4 3 5 4 3 2 4 3 2 3 2 2 1 3 5 6 3 2 3 5 8 6 3 3 2 2 2 1
27 27 23 19 15 14 12 10 10 10 7 5 7 10 10 9 5 4 10 2 3 5 2 2 2 3 2 2 2 1 3 3 1 6 3 2 10 0 5 2 1 2 1 5
28 28 25 21 18 13 11 11 9 9 6 8 9 9 11 12 11 9 4 5 5 4 4 3 1 4 3 3 4 3 5 5 3 2 3 11 15 14 13 8 5 5 2 6
27 24 26 22 19 15 13 11 11 12 4 3 3 7 8 10 12 11 11 5 5 4 5 1 2 3 3 2 1 3 1 9 5 5 10 8 12 11 6 11 13 8 4 7
25 23 27 23 20 17 11 12 12 13 7 2 1 4 8 8 8 10 10 9 7 4 2 2 2 1 2 1 2 5 11 7 6 3 3 1 4 5 2 7 8 10 9 11
29 22 21 25 21 18 11 6 16 16 15 4 1 3 4 8 8 8 9 10 8 4 3 2 2 2 1 2 3 7 14 14 10 1 6 5 5 3 2 4 8 10 11 10
18 27 22 25 21 22 13 4 3 16 16 4 1 2 3 7 8 7 7 9 4 5 3 3 2 3 4 2 5 5 6 15 16 11 5 3 6 3 3 5 8 11 12 11
4 26 21 23 20 21 19 11 3 11 13 4 2 1 3 9 4 3 6 5 5 4 2 2 3 2 3 5 15 9 10 8 14 16 13 8 4 6 7 8 10 12 12 12
5 19 26 21 19 13 12 16 11 8 6 3 3 3 3 10 4 4 4 5 2 2 2 2 2 2 7 10 11 12 14 11 6 15 13 12 10 9 10 11 14 14 15 15
10 17 15 8 10 14 17 13 10 13 9 5 3 5 3 8 4 3 4 1 2 2 2 2 3 5 21 25 21 15 8 15 12 12 11 13 13 12 12 12 12 12 14 15
8 5 6 11 21 13 8 5 6 7 3 7 5 11 5 10 3 3 5 2 2 2 2 3 2 4 5 4 6 11 24 19 16 14 8 9 8 13 14 14 14 14 15 15
3 2 10 19 7 5 4 4 4 4 5 7 7 6 5 8 5 4 4 2 2 3 6 2 3 4 9 6 3 2 9 16 16 15 9 9 10 11 14 15 17 16 16 15
5 1 3 3 3 4 5 7 3 3 6 8 7 4 6 5 4 5 3 3 2 6 3 4 5 4 5 6 7 7 11 13 15 14 11 10 10 14 16 19 19 18 17 14
3 1 2 2 3 2 1 0 2 3 4 13 12 6 4 4 3 2 4 2 3 3 3 6 3 5 9 10 10 9 10 13 15 16 14 13 15 18 19 19 19 18 16 13
2 3 3 2 1 1 1 1 2 2 10 19 7 5 3 2 3 1 4 4 4 5 5 3 6 6 4 12 13 12 11 14 17 18 17 17 20 22 23 20 18 16 12 9
1 3 2 1 1 1 2 2 1 6 14 12 3 3 2 3 4 5 6 7 6 3 3 7 11 7 3 6 9 9 10 13 17 18 19 21 23 23 21 20 17 13 11 9
1 1 1 3 2 2 1 3 2 6 13 2 2 4 4 3 3 4 4 5 2 3 8 12 13 10 6 4 9 11 13 16 18 20 22 23 23 22 20 18 15 12 11 9
Wind_Direction
242 254 274 300 324 334 242 188 231 195 182 230 213 235 205 219 226 214 253 252 264 283 292 246 259 249 260 6 329 289 113 85 122 45 346 312 327 127 148 327 149 18 304 126
238 243 256 281 307 326 230 197 180 193 186 248 206 216 250 242 205 224 215 236 226 252 279 285 246 228 335 350 319 352 109 204 128 190 194 201 241 84 86 96 61 238 277 83
241 237 245 257 291 311 215 189 192 179 205 255 261 206 226 240 228 254 222 275 233 227 252 232 298 245 221 339 113 17 281 132 235 205 180 109 179 179 189 241 224 132 266 356
245 237 237 244 268 293 204 210 221 192 200 224 213 190 227 217 227 229 230 223 246 243 264 270 272 295 307 57 19 24 342 331 42 30 51 13 300 191 192 200 210 235 72 278
242 244 227 235 250 264 216 225 192 211 255 184 200 188 210 214 201 207 216 246 168 228 242 253 295 205 240 236 57 356 44 112 155 182 28 1 260 236 214 224 231 267 258 273
233 244 223 229 235 246 230 223 232 198 165 182 213 212 195 210 189 202 235 281 223 189 242 296 281 239 29 353 298 168 349 148 188 219 360 283 255 226 202 193 202 204 210 246
221 237 224 223 228 234 237 231 212 182 236 218 218 218 201 199 215 248 180 190 250 138 131 92 78 76 82 63 40 14 165 145 127 297 219 220 60 73 256 223 227 215 265 174
213 226 235 222 226 231 237 231 209 206 262 229 226 202 179 139 149 191 191 194 200 164 297 233 203 200 201 113 29 30 334 193 148 229 226 309 200 204 181 189 212 222 241 245
212 218 227 223 225 227 232 225 220 223 271 225 181 166 189 187 185 180 192 147 160 169 157 236 238 224 274 191 177 150 95 100 263 174 247 257 53 145 191 233 232 157 240 267
214 214 222 230 223 227 225 226 218 218 240 246 184 197 183 170 154 132 154 168 167 185 193 222 228 220 301 230 219 169 162 170 217 197 270 277 170 143 149 197 83 331 280 270
214 212 217 224 228 227 222 225 218 213 238 260 223 219 186 173 188 196 149 147 178 146 213 228 196 227 181 236 202 194 192 178 185 160 216 271 149 121 210 66 55 353 335 205
216 211 210 218 228 224 222 225 220 223 237 259 240 231 228 220 213 196 177 313 168 174 159 206 147 210 185 230 259 221 225 222 208 222 231 48 194 228 193 196 121 13 47 153
211 205 205 212 220 227 226 223 215 215 251 261 239 232 229 228 219 211 195 224 203 203 186 150 130 241 169 217 231 212 222 188 239 295 179 239 237 239 238 236 264 314 297 184
204 201 200 207 215 222 225 233 215 210 240 256 233 225 223 225 220 219 222 234 200 178 169 167 215 259 201 253 331 244 60 161 202 254 267 256 259 245 242 240 250 244 224 187
209 194 196 207 212 216 226 235 226 213 219 240 248 248 232 222 217 218 217 212 190 174 168 176 229 181 205 172 277 242 189 185 187 227 175 83 122 137 157 213 213 205 197 181
208 205 207 203 210 208 207 239 238 218 217 242 247 237 219 207 208 207 202 201 198 185 197 207 235 229 233 258 251 261 213 216 216 256 179 160 157 203 250 213 201 195 189 187
208 219 209 205 209 203 190 215 211 201 189 216 214 195 184 178 175 182 180 190 195 191 211 216 207 187 199 239 238 248 251 228 222 223 210 240 243 233 208 186 176 174 174 174
185 201 205 205 209 212 209 210 27 171 178 211 191 138 185 173 168 155 170 182 183 210 221 210 209 201 212 250 246 245 251 237 222 221 219 227 225 196 186 176 172 168 167 165
164 179 188 194 200 212 191 190 206 184 204 238 181 177 186 167 146 142 156 167 176 209 234 226 191 201 227 227 244 238 234 223 233 206 212 215 208 197 186 178 172 175 168 165
201 158 160 178 180 197 182 192 184 196 208 235 221 163 145 161 152 146 132 168 171 197 185 143 228 259 259 253 248 247 237 213 207 181 195 201 203 199 193 187 180 177 173 165
189 163 139 142 156 144 171 183 181 179 206 208 209 181 143 185 154 155 194 165 167 218 156 215 250 267 252 263 260 247 236 235 214 213 214 207 212 205 192 181 176 172 171 168
232 118 124 150 171 160 168 184 174 193 212 174 165 180 149 157 160 122 168 143 165 227 144 209 252 249 246 248 272 243 191 199 197 198 192 185 187 186 185 179 174 171 168 167
134 349 147 158 162 184 199 183 184 187 169 160 156 136 158 140 159 93 138 152 177 133 192 235 238 252 214 191 178 163 173 179 187 193 194 187 184 175 174 170 169 167 167 173
149 234 264 215 175 238 239 146 137 147 145 161 153 121 149 144 129 141 124 104 156 199 236 236 246 258 232 200 184 182 181 188 198 195 190 186 179 168 165 169 167 170 176 183
145 160 246 241 148 68 61 136 112 137 152 160 133 107 145 127 111 109 120 156 225 224 232 247 321 316 227 193 192 190 190 188 184 184 184 178 172 169 165 168 173 179 188 201
267 207 248 322 185 206 268 264 229 178 171 162 150 138 159 175 143 160 204 167 218 242 233 308 327 337 317 213 202 198 192 188 183 183 181 176 174 173 173 176 183 193 204 210
13 336 14 309 349 11 125 92 44 175 167 190 171 192 181 112 181 208 193 208 243 302 333 332 355 347 328 268 216 205 195 189 186 184 180 179 178 180 184 190 199 207 211 221
Height
1501 1502 1503 1502 1501 1499 1498 1498 1499 1499 1500 1503 1500 1496 1495 1495 1493 1494 1493 1492 1489 1485 1484 1483 1482 1480 1481 1481 1480 1476 1476 1474 1477 1478 1481 1481 1477 1472 1468 1467 1477 1478 1472 1459
1497 1499 1499 1499 1499 1498 1497 1496 1497 1498 1499 1495 1493 1494 1493 1493 1492 1492 1491 1489 1488 1486 1484 1483 1481 1481 1481 1481 1481 1477 1477 1476 1480 1480 1482 1481 1476 1478 1478 1475 1476 1475 1466 1461
1493 1495 1496 1496 1496 1496 1496 1495 1495 1498 1498 1496 1493 1491 1490 1490 1490 1490 1489 1487 1486 1485 1484 1484 1480 1480 1481 1482 1481 1481 1479 1477 1471 1470 1469 1472 1474 1477 1478 1473 1471 1470 1465 1463
1488 1490 1492 1493 1493 1493 1495 1492 1491 1490 1490 1491 1491 1491 1490 1488 1487 1489 1488 1485 1485 1484 1482 1482 1480 1481 1479 1479 1480 1480 1480 1476 1481 1481 1480 1478 1476 1474 1477 1475 1469 1467 1468 1468
1485 1486 1487 1489 1490 1491 1492 1490 1489 1490 1489 1490 1490 1488 1485 1485 1485 1486 1484 1485 1484 1484 1482 1481 1480 1481 1481 1477 1480 1479 1481 1479 1482 1482 1482 1481 1477 1474 1476 1476 1477 1477 1476 1470
1481 1482 1484 1486 1487 1489 1488 1486 1486 1487 1488 1488 1487 1481 1481 1483 1484 1485 1485 1485 1484 1483 1483 1484 1483 1484 1484 1482 1480 1479 1480 1480 1480 1474 1484 1480 1473 1464 1469 1469 1470 1465 1470 1456
1476 1478 1479 1482 1484 1485 1486 1484 1485 1486 1482 1485 1482 1481 1481 1482 1483 1482 1484 1484 1484 1486 1484 1484 1484 1484 1484 1483 1483 1483 1481 1480 1484 1479 1481 1475 1457 1465 1464 1463 1464 1464 1462 1463
1471 1474 1476 1478 1480 1482 1482 1481 1483 1483 1480 1481 1480 1480 1480 1481 1482 1483 1483 1484 1484 1485 1486 1483 1481 1480 1482 1483 1485 1484 1484 1480 1481 1477 1473 1460 1460 1465 1464 1460 1455 1459 1459 1461
1466 1470 1473 1474 1477 1479 1480 1479 1480 1481 1482 1475 1477 1477 1479 1478 1480 1483 1483 1483 1484 1485 1485 1482 1477 1472 1475 1476 1481 1485 1484 1482 1476 1481 1473 1459 1457 1462 1463 1463 1453 1459 1461 1460
1461 1465 1468 1470 1473 1475 1476 1476 1477 1479 1479 1475 1475 1475 1475 1476 1478 1478 1482 1483 1484 1485 1482 1479 1477 1474 1483 1473 1474 1479 1478 1479 1475 1475 1471 1456 1457 1462 1463 1458 1459 1458 1458 1458
1456 1460 1464 1467 1470 1472 1473 1473 1474 1476 1476 1473 1473 1473 1473 1474 1475 1474 1479 1482 1482 1484 1481 1479 1476 1476 1477 1478 1476 1474 1470 1470 1470 1477 1473 1465 1459 1464 1458 1458 1458 1458 1457 1456
1451 1455 1459 1463 1467 1469 1469 1470 1471 1472 1475 1472 1471 1470 1471 1472 1473 1474 1475 1476 1475 1476 1476 1481 1480 1477 1483 1476 1462 1480 1472 1466 1461 1464 1454 1456 1457 1457 1456 1457 1457 1457 1456 1456
1444 1449 1454 1459 1463 1466 1466 1467 1468 1470 1472 1470 1468 1467 1468 1469 1470 1472 1474 1474 1474 1474 1474 1476 1476 1475 1475 1468 1467 1469 1469 1470 1465 1465 1451 1452 1454 1454 1455 1456 1457 1457 1457 1457
1438 1443 1450 1455 1459 1462 1463 1464 1465 1467 1470 1468 1465 1464 1466 1466 1468 1469 1471 1472 1472 1473 1474 1475 1474 1472 1474 1467 1468 1466 1462 1467 1460 1458 1449 1450 1450 1449 1450 1452 1454 1455 1456 1457
1435 1439 1445 1451 1455 1458 1460 1461 1462 1464 1469 1464 1463 1463 1463 1464 1465 1467 1469 1470 1471 1472 1474 1474 1472 1473 1473 1473 1472 1460 1453 1449 1450 1442 1443 1444 1447 1448 1449 1449 1451 1453 1455 1456
1432 1436 1441 1446 1451 1455 1458 1460 1458 1459 1463 1464 1462 1463 1461 1462 1464 1466 1467 1469 1470 1471 1471 1471 1471 1471 1473 1469 1459 1440 1440 1440 1441 1442 1443 1444 1446 1447 1448 1449 1450 1452 1454 1456
1428 1432 1437 1442 1446 1450 1454 1454 1453 1454 1461 1460 1460 1460 1460 1461 1463 1465 1467 1468 1469 1470 1470 1469 1469 1470 1469 1467 1453 1435 1434 1436 1439 1441 1442 1444 1444 1445 1446 1447 1448 1450 1453 1455
1425 1428 1434 1439 1444 1447 1449 1451 1452 1453 1457 1458 1458 1458 1461 1461 1463 1465 1466 1467 1468 1469 1468 1468 1468 1468 1467 1457 1431 1432 1433 1434 1434 1437 1440 1441 1443 1444 1445 1446 1448 1450 1453 1455
1424 1424 1430 1437 1440 1443 1443 1448 1451 1453 1458 1454 1453 1452 1453 1459 1460 1463 1466 1466 1468 1468 1467 1467 1468 1460 1451 1429 1425 1427 1429 1431 1431 1433 1436 1438 1441 1442 1444 1446 1448 1450 1453 1456
1424 1425 1427 1431 1434 1440 1443 1446 1449 1451 1452 1450 1448 1448 1452 1456 1459 1462 1464 1465 1465 1464 1465 1465 1464 1445 1426 1422 1422 1424 1425 1427 1430 1431 1435 1436 1439 1441 1444 1446 1449 1451 1453 1456
1421 1421 1423 1428 1433 1437 1441 1442 1443 1443 1444 1441 1440 1442 1447 1452 1453 1456 1460 1461 1463 1460 1462 1462 1455 1440 1419 1416 1416 1416 1419 1423 1426 1429 1431 1433 1436 1439 1442 1445 1448 1451 1453 1456
1422 1423 1423 1427 1429 1431 1434 1434 1435 1435 1433 1434 1436 1439 1442 1447 1449 1451 1458 1458 1462 1455 1463 1461 1448 1420 1413 1414 1415 1415 1416 1420 1424 1427 1430 1431 1433 1435 1439 1443 1447 1451 1454 1457
1424 1423 1422 1422 1425 1425 1424 1423 1426 1426 1427 1430 1433 1437 1439 1444 1446 1449 1453 1455 1457 1461 1460 1448 1426 1412 1411 1411 1413 1415 1417 1421 1424 1427 1429 1431 1433 1435 1438 1441 1445 1449 1453 1457
1424 1424 1422 1421 1419 1420 1418 1419 1418 1422 1424 1427 1430 1433 1436 1440 1444 1447 1448 1457 1457 1457 1455 1434 1411 1407 1408 1410 1412 1414 1416 1418 1422 1425 1428 1430 1432 1435 1439 1443 1446 1449 1452 1454
1422 1423 1422 1419 1419 1419 1420 1421 1421 1422 1424 1427 1431 1432 1435 1438 1442 1445 1451 1455 1450 1443 1429 1416 1410 1409 1409 1409 1411 1413 1415 1417 1420 1423 1426 1428 1431 1435 1439 1443 1446 1449 1451 1453
1422 1421 1422 1421 1420 1420 1421 1421 1421 1422 1425 1428 1429 1431 1432 1433 1434 1439 1437 1439 1433 1420 1418 1414 1412 1411 1410 1410 1412 1414 1416 1418 1421 1423 1426 1429 1432 1436 1438 1441 1444 1446 1449 1450
1420 1421 1421 1421 1421 1420 1421 1421 1421 1422 1426 1425 1427 1426 1422 1432 1430 1431 1431 1426 1418 1416 1415 1415 1413 1411 1411 1411 1412 1413 1415 1418 1420 1423 1425 1429 1432 1435 1437 1439 1441 1443 1446 1447